Location: ??????
(41.3164°N, 22.6615°E)
Time: 00:52:38
(UTC+00:00)

STRAND 1 - Pass Details

Date: 05 July 2022
Orbit: 766 x 781 km, 98.4° (Epoch: 17 August)

Event Time Altitude Azimuth Distance (km) Brightness Sun altitude
Rises 19:03:36 0° 355° (N) 3,266 ? -9.5°
Reaches altitude 10° 19:06:53 10° 333° (NNW) 2,330 ? -10.0°
Maximum altitude 19:09:41 15° 300° (WNW) 1,996 ? -10.4°
Drops below altitude 10° 19:12:29 10° 266° (W) 2,317 ? -10.8°
Sets 19:15:44 0° 244° (WSW) 3,236 ? -11.2°
